Total_Precipitation_Accumulation
0.00 0.02 0.02 0.03 0.12 0.06 0.00 0.00 0.00 0.00 0.00 0.00 0.00 0.00 0.00 0.00 0.02 0.14 0.04 0.00 0.00 0.00 0.00 0.03 0.03 0.03 0.03 0.02 0.02 0.03 0.04 0.03 0.03 0.06 0.04 0.04 0.02 0.01 0.01 0.02 0.02 0.02 0.03 0.05 0.11 0.17 0.18 0.18 0.25
0.00 0.01 0.02 0.05 0.07 0.01 0.00 0.00 0.00 0.00 0.00 0.00 0.00 0.00 0.00 0.00 0.00 0.00 0.00 0.00 0.00 0.00 0.00 0.01 0.03 0.05 0.08 0.05 0.04 0.06 0.05 0.03 0.04 0.06 0.05 0.05 0.02 0.01 0.01 0.01 0.02 0.03 0.03 0.04 0.07 0.15 0.18 0.19 0.21
0.00 0.01 0.02 0.06 0.02 0.00 0.00 0.00 0.00 0.00 0.00 0.00 0.00 0.00 0.00 0.00 0.00 0.00 0.01 0.01 0.00 0.01 0.01 0.04 0.07 0.14 0.16 0.10 0.09 0.12 0.08 0.07 0.06 0.05 0.05 0.06 0.04 0.05 0.03 0.01 0.02 0.03 0.04 0.04 0.04 0.08 0.15 0.19 0.20
0.00 0.00 0.03 0.02 0.00 0.00 0.00 0.00 0.00 0.00 0.00 0.00 0.00 0.00 0.00 0.00 0.00 0.00 0.01 0.01 0.00 0.02 0.04 0.08 0.13 0.20 0.22 0.12 0.14 0.20 0.14 0.11 0.07 0.04 0.05 0.06 0.04 0.05 0.01 0.01 0.04 0.03 0.03 0.03 0.03 0.05 0.10 0.16 0.20
0.00 0.01 0.02 0.01 0.00 0.00 0.00 0.00 0.00 0.00 0.00 0.00 0.00 0.00 0.00 0.00 0.00 0.00 0.00 0.00 0.01 0.02 0.04 0.09 0.17 0.19 0.19 0.17 0.21 0.29 0.23 0.17 0.09 0.04 0.06 0.06 0.05 0.04 0.02 0.03 0.03 0.03 0.03 0.02 0.02 0.03 0.05 0.09 0.14
0.01 0.03 0.05 0.02 0.00 0.00 0.01 0.00 0.00 0.00 0.00 0.00 0.00 0.00 0.00 0.00 0.00 0.00 0.01 0.02 0.02 0.02 0.03 0.09 0.13 0.13 0.16 0.20 0.26 0.33 0.33 0.22 0.09 0.04 0.06 0.05 0.04 0.03 0.03 0.04 0.04 0.03 0.01 0.01 0.01 0.01 0.01 0.02 0.05
0.01 0.04 0.08 0.04 0.01 0.01 0.01 0.01 0.00 0.00 0.00 0.00 0.00 0.00 0.00 0.00 0.00 0.01 0.04 0.08 0.06 0.04 0.03 0.08 0.09 0.08 0.13 0.21 0.22 0.33 0.45 0.28 0.12 0.05 0.06 0.07 0.05 0.03 0.03 0.02 0.02 0.01 0.01 0.00 0.00 0.01 0.00 0.01 0.01
0.01 0.02 0.04 0.04 0.02 0.03 0.02 0.01 0.01 0.01 0.00 0.00 0.00 0.00 0.00 0.00 0.00 0.02 0.07 0.08 0.05 0.03 0.02 0.02 0.03 0.06 0.12 0.15 0.21 0.30 0.57 0.48 0.16 0.08 0.07 0.07 0.05 0.04 0.03 0.01 0.00 0.01 0.01 0.00 0.00 0.00 0.00 0.00 0.01
0.01 0.03 0.06 0.07 0.05 0.05 0.03 0.02 0.03 0.02 0.01 0.00 0.00 0.00 0.00 0.00 0.01 0.02 0.03 0.03 0.02 0.01 0.01 0.01 0.02 0.02 0.06 0.12 0.20 0.31 0.47 0.50 0.24 0.11 0.07 0.06 0.05 0.08 0.04 0.01 0.00 0.01 0.00 0.00 0.00 0.00 0.00 0.00 0.01
0.02 0.03 0.06 0.08 0.08 0.07 0.05 0.04 0.03 0.03 0.02 0.02 0.02 0.01 0.00 0.00 0.02 0.02 0.02 0.02 0.02 0.01 0.01 0.01 0.01 0.02 0.02 0.05 0.16 0.19 0.21 0.26 0.16 0.13 0.06 0.06 0.16 0.14 0.04 0.01 0.00 0.01 0.00 0.00 0.00 0.00 0.00 0.00 0.00
0.03 0.02 0.08 0.16 0.13 0.05 0.03 0.03 0.03 0.03 0.03 0.04 0.03 0.02 0.02 0.02 0.03 0.05 0.07 0.07 0.07 0.07 0.05 0.03 0.02 0.02 0.02 0.08 0.14 0.17 0.23 0.28 0.30 0.23 0.09 0.09 0.16 0.08 0.01 0.00 0.01 0.01 0.00 0.00 0.00 0.00 0.00 0.00 0.00
0.05 0.03 0.03 0.05 0.05 0.03 0.03 0.02 0.03 0.03 0.04 0.04 0.04 0.04 0.05 0.06 0.07 0.08 0.10 0.13 0.15 0.15 0.15 0.13 0.06 0.03 0.03 0.05 0.12 0.17 0.25 0.32 0.29 0.16 0.05 0.04 0.07 0.04 0.01 0.00 0.01 0.01 0.01 0.00 0.00 0.00 0.00 0.00 0.00
0.05 0.07 0.05 0.05 0.05 0.07 0.05 0.05 0.05 0.06 0.04 0.03 0.05 0.09 0.13 0.16 0.17 0.15 0.12 0.13 0.14 0.18 0.21 0.23 0.19 0.11 0.09 0.08 0.10 0.11 0.27 0.32 0.31 0.23 0.06 0.07 0.05 0.02 0.01 0.00 0.00 0.00 0.01 0.00 0.00 0.00 0.00 0.00 0.01
0.05 0.08 0.07 0.08 0.08 0.08 0.08 0.08 0.10 0.09 0.09 0.07 0.08 0.15 0.21 0.26 0.28 0.26 0.21 0.18 0.16 0.18 0.22 0.27 0.30 0.26 0.23 0.20 0.17 0.16 0.15 0.17 0.23 0.16 0.04 0.08 0.08 0.03 0.01 0.02 0.01 0.00 0.00 0.01 0.00 0.00 0.00 0.01 0.01
0.02 0.04 0.05 0.03 0.04 0.07 0.10 0.11 0.12 0.11 0.12 0.12 0.10 0.14 0.20 0.26 0.28 0.30 0.29 0.25 0.23 0.26 0.27 0.32 0.39 0.42 0.38 0.33 0.33 0.27 0.23 0.22 0.16 0.12 0.04 0.05 0.08 0.06 0.05 0.06 0.04 0.03 0.03 0.02 0.01 0.00 0.00 0.00 0.01
0.00 0.01 0.01 0.01 0.06 0.10 0.10 0.09 0.10 0.12 0.10 0.10 0.08 0.10 0.14 0.19 0.23 0.27 0.31 0.32 0.30 0.31 0.30 0.33 0.36 0.38 0.41 0.40 0.40 0.39 0.33 0.30 0.27 0.23 0.13 0.08 0.11 0.14 0.10 0.10 0.11 0.10 0.05 0.03 0.02 0.00 0.00 0.00 0.00
0.00 0.00 0.01 0.03 0.06 0.08 0.08 0.09 0.08 0.08 0.07 0.05 0.05 0.04 0.07 0.10 0.15 0.20 0.23 0.29 0.32 0.34 0.30 0.29 0.30 0.29 0.30 0.34 0.42 0.47 0.46 0.42 0.40 0.35 0.24 0.26 0.33 0.31 0.23 0.23 0.24 0.24 0.17 0.09 0.05 0.02 0.01 0.00 0.00
0.01 0.01 0.01 0.03 0.05 0.05 0.06 0.09 0.09 0.05 0.03 0.02 0.03 0.02 0.02 0.03 0.05 0.09 0.14 0.22 0.26 0.29 0.30 0.29 0.31 0.29 0.25 0.29 0.40 0.46 0.45 0.43 0.46 0.46 0.49 0.72 0.76 0.60 0.52 0.51 0.42 0.34 0.28 0.22 0.16 0.09 0.05 0.03 0.01
0.02 0.02 0.01 0.01 0.01 0.01 0.02 0.03 0.04 0.02 0.01 0.01 0.01 0.01 0.01 0.01 0.01 0.01 0.03 0.07 0.14 0.15 0.14 0.18 0.24 0.30 0.27 0.23 0.29 0.38 0.44 0.51 0.56 0.65 0.67 0.82 0.85 0.75 0.73 0.72 0.65 0.50 0.39 0.37 0.35 0.30 0.22 0.13 0.05
0.02 0.01 0.01 0.01 0.01 0.01 0.01 0.01 0.03 0.02 0.02 0.01 0.01 0.01 0.01 0.01 0.01 0.01 0.01 0.01 0.02 0.04 0.06 0.10 0.15 0.23 0.30 0.32 0.36 0.49 0.65 0.75 0.80 0.88 0.89 0.93 0.87 0.80 0.75 0.85 0.87 0.71 0.62 0.59 0.61 0.54 0.45 0.30 0.16
0.00 0.00 0.00 0.00 0.00 0.00 0.00 0.01 0.02 0.03 0.03 0.02 0.02 0.03 0.03 0.03 0.02 0.01 0.01 0.01 0.01 0.02 0.05 0.10 0.18 0.31 0.47 0.62 0.82 1.05 1.32 1.41 1.29 1.14 1.17 1.23 1.22 1.11 0.99 1.01 1.03 0.87 0.78 0.77 0.75 0.66 0.69 0.64 0.45
0.00 0.00 0.00 0.01 0.01 0.00 0.00 0.00 0.02 0.05 0.06 0.07 0.08 0.09 0.09 0.07 0.06 0.05 0.04 0.03 0.05 0.09 0.15 0.26 0.37 0.53 0.67 0.86 1.07 1.31 1.53 1.70 1.70 1.71 1.73 1.67 1.56 1.39 1.18 1.07 1.00 0.95 0.90 0.79 0.66 0.67 0.83 0.97 0.85
0.00 0.00 0.00 0.00 0.01 0.01 0.00 0.01 0.04 0.11 0.17 0.22 0.25 0.25 0.23 0.19 0.18 0.17 0.14 0.12 0.14 0.25 0.36 0.47 0.68 0.81 0.90 0.94 1.03 1.24 1.35 1.40 1.53 1.68 1.75 1.71 1.58 1.42 1.24 1.08 0.99 0.94 0.93 0.86 0.81 0.84 0.94 1.05 1.13
0.00 0.00 0.00 0.00 0.01 0.01 0.00 0.04 0.13 0.24 0.32 0.40 0.40 0.36 0.33 0.25 0.22 0.24 0.26 0.25 0.28 0.49 0.71 0.84 0.92 0.97 0.93 0.88 0.89 1.03 1.19 1.27 1.36 1.47 1.52 1.43 1.29 1.25 1.21 1.12 0.99 0.87 0.81 0.77 0.82 0.94 0.94 0.97 1.01
0.00 0.00 0.01 0.01 0.02 0.03 0.03 0.11 0.26 0.28 0.27 0.30 0.33 0.32 0.28 0.20 0.16 0.20 0.28 0.38 0.53 0.77 1.00 1.12 1.10 0.99 0.84 0.79 0.83 0.91 1.03 1.16 1.20 1.18 1.15 1.08 1.00 0.99 1.01 0.98 0.88 0.75 0.67 0.64 0.70 0.78 0.73 0.69 0.72
0.00 0.00 0.03 0.03 0.03 0.05 0.11 0.27 0.38 0.30 0.21 0.16 0.16 0.16 0.18 0.22 0.26 0.25 0.28 0.43 0.67 0.93 1.17 1.40 1.37 1.16 0.93 0.86 0.89 0.89 0.92 0.93 0.89 0.85 0.84 0.83 0.79 0.76 0.69 0.69 0.67 0.62 0.58 0.54 0.57 0.56 0.49 0.45 0.47
0.00 0.01 0.03 0.08 0.05 0.06 0.12 0.26 0.29 0.20 0.14 0.12 0.14 0.17 0.22 0.28 0.36 0.41 0.50 0.58 0.77 0.97 1.28 1.49 1.52 1.34 1.17 1.09 1.04 1.01 0.88 0.76 0.66 0.58 0.56 0.56 0.52 0.49 0.48 0.51 0.54 0.54 0.50 0.45 0.44 0.42 0.39 0.35 0.31
0.01 0.02 0.05 0.13 0.13 0.11 0.15 0.24 0.19 0.11 0.10 0.12 0.18 0.23 0.28 0.34 0.39 0.52 0.76 0.95 1.16 1.08 1.19 1.36 1.29 1.21 1.17 1.18 1.20 1.13 0.93 0.77 0.67 0.60 0.55 0.49 0.44 0.40 0.42 0.43 0.41 0.41 0.39 0.38 0.39 0.39 0.38 0.32 0.28
0.03 0.05 0.06 0.12 0.17 0.20 0.28 0.33 0.22 0.18 0.20 0.25 0.31 0.34 0.37 0.43 0.48 0.62 0.78 0.93 1.10 1.19 1.18 1.21 1.15 1.12 1.08 1.02 0.99 0.89 0.71 0.60 0.55 0.55 0.50 0.41 0.37 0.36 0.36 0.31 0.32 0.39 0.37 0.33 0.36 0.36 0.32 0.29 0.26
0.10 0.12 0.12 0.20 0.26 0.31 0.45 0.50 0.33 0.33 0.38 0.45 0.51 0.54 0.57 0.57 0.60 0.71 0.78 0.93 1.02 1.02 1.04 1.11 1.04 0.98 0.92 0.80 0.72 0.62 0.49 0.43 0.47 0.47 0.39 0.29 0.28 0.28 0.32 0.31 0.28 0.37 0.46 0.47 0.44 0.40 0.34 0.29 0.23